| time (UTC) | temp F | wind direction | speed knots | gust knots | rain 1hr in | rain 24hr in | rain mn in | humidity % | barometer mb |
| 20260506100015 | 52 | 227 | 0.0 | 2.6 | 0.00 | 0.00 | 0.00 | 88 | 1018.1 |
| 20260506095505 | 52 | 227 | 0.0 | 2.6 | 0.00 | 0.00 | 0.00 | 88 | 1018.1 |
| 20260506095009 | 52 | 227 | 0.0 | 2.6 | 0.00 | 0.00 | 0.00 | 87 | 1018.0 |
| 20260506094520 | 52 | 215 | 0.0 | 0.0 | 0.00 | 0.00 | 0.00 | 88 | 1018.0 |
| 20260506094012 | 52 | 215 | 0.0 | 0.0 | 0.00 | 0.00 | 0.00 | 88 | 1018.0 |
| 20260506093510 | 52 | 215 | 0.0 | 1.7 | 0.00 | 0.00 | 0.00 | 88 | 1018.1 |
| 20260506093024 | 52 | 215 | 0.0 | 3.5 | 0.00 | 0.00 | 0.00 | 88 | 1018.0 |
| 20260506092508 | 52 | 216 | 0.9 | 3.5 | 0.00 | 0.00 | 0.00 | 88 | 1018.0 |
| 20260506092013 | 52 | 202 | 0.0 | 0.9 | 0.00 | 0.00 | 0.00 | 88 | 1018.0 |
| 20260506091528 | 52 | 240 | 0.0 | 1.7 | 0.00 | 0.00 | 0.00 | 88 | 1018.0 |
| 20260506091007 | 52 | 217 | 0.0 | 1.7 | 0.00 | 0.00 | 0.00 | 88 | 1017.9 |
| 20260506090503 | 52 | 221 | 0.0 | 1.7 | 0.00 | 0.00 | 0.00 | 88 | 1017.9 |
| 20260506090015 | 52 | 208 | 0.0 | 0.0 | 0.00 | 0.00 | 0.00 | 88 | 1017.9 |
| 20260506085507 | 52 | 208 | 0.0 | 0.0 | 0.00 | 0.00 | 0.00 | 88 | 1017.8 |
| 20260506085004 | 52 | 208 | 0.0 | 0.0 | 0.00 | 0.00 | 0.00 | 88 | 1017.8 |
| 20260506084539 | 52 | 208 | 0.0 | 1.7 | 0.00 | 0.00 | 0.00 | 88 | 1017.7 |
| 20260506084012 | 52 | 208 | 0.0 | 2.6 | 0.00 | 0.00 | 0.00 | 88 | 1017.7 |
| 20260506083508 | 52 | 207 | 0.0 | 3.5 | 0.00 | 0.00 | 0.00 | 87 | 1017.6 |
| 20260506082500 | 52 | 195 | 0.0 | 3.5 | 0.00 | 0.00 | 0.00 | 88 | 1017.6 |
| 20260506082004 | 52 | 186 | 0.9 | 4.3 | 0.00 | 0.00 | 0.00 | 88 | 1017.6 |
| 20260506081508 | 51 | 203 | 0.9 | 4.3 | 0.00 | 0.00 | 0.00 | 88 | 1017.6 |
| 20260506081008 | 51 | 240 | 0.9 | 3.5 | 0.00 | 0.00 | 0.00 | 88 | 1017.6 |
| 20260506080504 | 51 | 198 | 0.0 | 3.5 | 0.00 | 0.00 | 0.00 | 88 | 1017.5 |
| 20260506073505 | 52 | 208 | 0.0 | 1.7 | 0.00 | 0.00 | 0.00 | 88 | 1017.3 |
| 20260506073002 | 52 | 209 | 0.0 | 1.7 | 0.00 | 0.00 | 0.00 | 88 | 1017.4 |
| 20260506072502 | 52 | 209 | 0.0 | 1.7 | 0.00 | 0.00 | 0.00 | 88 | 1017.3 |
| 20260506072001 | 52 | 209 | 0.0 | 1.7 | 0.00 | 0.00 | 0.00 | 87 | 1017.3 |
| 20260506071505 | 52 | 209 | 0.0 | 1.7 | 0.00 | 0.00 | 0.00 | 87 | 1017.3 |
| 20260506071004 | 52 | 189 | 0.0 | 0.0 | 0.00 | 0.00 | 0.00 | 87 | 1017.2 |
| 20260506070504 | 52 | 184 | 0.0 | 0.0 | 0.00 | 0.00 | 0.00 | 87 | 1017.1 |
| 20260506062508 | 53 | 193 | 0.0 | 0.0 | 0.00 | 0.00 | 0.00 | 87 | 1016.8 |
| 20260506062010 | 53 | 195 | 0.0 | 0.9 | 0.00 | 0.00 | 0.00 | 86 | 1016.7 |
| 20260506061504 | 53 | 196 | 0.0 | 1.7 | 0.00 | 0.00 | 0.00 | 87 | 1016.6 |
| 20260506061004 | 53 | 200 | 0.0 | 1.7 | 0.00 | 0.00 | 0.00 | 86 | 1016.5 |
| 20260506060504 | 54 | 200 | 0.0 | 1.7 | 0.00 | 0.00 | 0.00 | 86 | 1016.5 |
| 20260506051010 | 55 | 185 | 0.0 | 1.7 | 0.00 | 0.00 | 0.00 | 83 | 1016.0 |
| 20260506050507 | 56 | 172 | 0.0 | 1.7 | 0.00 | 0.00 | 0.00 | 83 | 1016.0 |
| 20260506045005 | 56 | 219 | 0.0 | 2.6 | 0.00 | 0.00 | 0.00 | 83 | 1015.9 |
| 20260506044513 | 56 | 200 | 0.0 | 2.6 | 0.00 | 0.00 | 0.00 | 83 | 1015.9 |
| 20260506044006 | 56 | 190 | 0.0 | 2.6 | 0.00 | 0.00 | 0.00 | 83 | 1015.9 |
| 20260506043508 | 56 | 205 | 0.0 | 2.6 | 0.00 | 0.00 | 0.00 | 84 | 1015.9 |
| 20260506043014 | 56 | 211 | 0.0 | 0.9 | 0.00 | 0.00 | 0.00 | 83 | 1015.9 |
| 20260506042508 | 56 | 211 | 0.0 | 0.9 | 0.00 | 0.00 | 0.00 | 83 | 1015.9 |
| 20260506042008 | 56 | 212 | 0.0 | 0.0 | 0.00 | 0.00 | 0.00 | 83 | 1015.9 |
| 20260506041520 | 56 | 212 | 0.0 | 0.0 | 0.00 | 0.00 | 0.00 | 83 | 1015.9 |
| 20260506041009 | 56 | 212 | 0.0 | 0.0 | 0.00 | 0.00 | 0.00 | 82 | 1015.9 |
| 20260506040510 | 56 | 212 | 0.0 | 0.0 | 0.00 | 0.00 | 0.00 | 82 | 1015.8 |
| 20260506040023 | 56 | 212 | 0.0 | 0.0 | 0.00 | 0.00 | 0.00 | 82 | 1015.8 |
| 20260506035508 | 57 | 212 | 0.0 | 0.0 | 0.00 | 0.00 | 0.00 | 81 | 1015.7 |
| 20260506035008 | 57 | 212 | 0.0 | 0.0 | 0.00 | 0.00 | 0.00 | 81 | 1015.7 |
| 20260506034529 | 57 | 212 | 0.0 | 0.0 | 0.00 | 0.00 | 0.00 | 82 | 1015.7 |
| 20260506034004 | 57 | 212 | 0.0 | 0.0 | 0.00 | 0.00 | 0.00 | 81 | 1015.6 |
| 20260506033504 | 57 | 212 | 0.0 | 0.0 | 0.00 | 0.00 | 0.00 | 80 | 1015.6 |
| 20260506033014 | 58 | 212 | 0.0 | 0.0 | 0.00 | 0.00 | 0.00 | 80 | 1015.5 |
| 20260506032504 | 58 | 212 | 0.0 | 0.0 | 0.00 | 0.00 | 0.00 | 79 | 1015.6 |
| 20260506032010 | 58 | 212 | 0.0 | 0.0 | 0.00 | 0.00 | 0.00 | 80 | 1015.6 |
| 20260506031516 | 58 | 212 | 0.0 | 0.0 | 0.00 | 0.00 | 0.00 | 79 | 1015.4 |
| 20260506031008 | 58 | 212 | 0.0 | 0.0 | 0.00 | 0.00 | 0.00 | 78 | 1015.4 |
| 20260506030512 | 59 | 212 | 0.0 | 0.0 | 0.00 | 0.00 | 0.00 | 78 | 1015.4 |
| 20260506030020 | 59 | 212 | 0.0 | 2.6 | 0.00 | 0.00 | 0.00 | 78 | 1015.3 |
| 20260506025511 | 59 | 212 | 0.0 | 2.6 | 0.00 | 0.00 | 0.00 | 77 | 1015.3 |
| 20260506025010 | 59 | 173 | 0.0 | 1.7 | 0.00 | 0.00 | 0.00 | 77 | 1015.3 |
| 20260506024524 | 59 | 143 | 0.0 | 2.6 | 0.00 | 0.00 | 0.00 | 77 | 1015.2 |
| 20260506024015 | 60 | 156 | 0.0 | 3.5 | 0.00 | 0.00 | 0.00 | 76 | 1015.2 |
| 20260506023513 | 60 | 171 | 0.9 | 3.5 | 0.00 | 0.00 | 0.00 | 75 | 1015.2 |
| 20260506023045 | 60 | 142 | 0.0 | 1.7 | 0.00 | 0.00 | 0.00 | 75 | 1015.4 |
| 20260506022506 | 60 | 185 | 0.0 | 1.7 | 0.00 | 0.00 | 0.00 | 75 | 1015.3 |
| 20260506022003 | 60 | 174 | 0.0 | 2.6 | 0.00 | 0.00 | 0.00 | 75 | 1015.3 |
| 20260506021521 | 61 | 174 | 0.9 | 1.7 | 0.00 | 0.00 | 0.00 | 74 | 1015.3 |
| 20260506021011 | 61 | 149 | 0.0 | 1.7 | 0.00 | 0.00 | 0.00 | 73 | 1015.3 |
| 20260506020508 | 61 | 130 | 0.9 | 1.7 | 0.00 | 0.00 | 0.00 | 72 | 1015.3 |
| 20260506020025 | 61 | 213 | 0.9 | 2.6 | 0.00 | 0.00 | 0.00 | 72 | 1015.3 |
| 20260506015501 | 61 | 188 | 0.0 | 2.6 | 0.00 | 0.00 | 0.00 | 72 | 1015.3 |
| 20260506015004 | 61 | 242 | 0.0 | 2.6 | 0.00 | 0.00 | 0.00 | 71 | 1015.3 |
| 20260506014504 | 61 | 156 | 0.9 | 6.1 | 0.00 | 0.00 | 0.00 | 71 | 1015.3 |
| 20260506014004 | 61 | 207 | 0.0 | 6.1 | 0.00 | 0.00 | 0.00 | 72 | 1015.3 |
| 20260506013504 | 61 | 200 | 0.9 | 4.3 | 0.00 | 0.00 | 0.00 | 71 | 1015.3 |
| 20260506013007 | 61 | 142 | 0.0 | 3.5 | 0.00 | 0.00 | 0.00 | 72 | 1015.3 |
| 20260506012503 | 61 | 178 | 0.0 | 3.5 | 0.00 | 0.00 | 0.00 | 72 | 1015.3 |
| 20260506012008 | 61 | 194 | 0.0 | 3.5 | 0.00 | 0.00 | 0.00 | 73 | 1015.3 |
| 20260506011514 | 61 | 165 | 0.9 | 3.5 | 0.00 | 0.00 | 0.00 | 71 | 1015.3 |
| 20260506011004 | 61 | 215 | 0.9 | 4.3 | 0.00 | 0.00 | 0.00 | 73 | 1015.5 |
| 20260506010504 | 61 | 157 | 2.6 | 4.3 | 0.00 | 0.00 | 0.00 | 72 | 1015.4 |
| 20260506010016 | 61 | 166 | 1.7 | 4.3 | 0.00 | 0.00 | 0.00 | 71 | 1015.4 |
| 20260506005500 | 62 | 166 | 0.0 | 2.6 | 0.00 | 0.00 | 0.00 | 71 | 1015.3 |
| 20260506005000 | 61 | 172 | 0.9 | 3.5 | 0.00 | 0.00 | 0.00 | 72 | 1015.4 |
| 20260506004505 | 61 | 130 | 0.9 | 3.5 | 0.00 | 0.00 | 0.00 | 72 | 1015.4 |
| 20260506004006 | 61 | 294 | 1.7 | 3.5 | 0.00 | 0.00 | 0.00 | 71 | 1015.5 |
| 20260506003507 | 62 | 277 | 1.7 | 2.6 | 0.00 | 0.00 | 0.00 | 71 | 1015.6 |
| 20260506003004 | 62 | 295 | 0.9 | 4.3 | 0.00 | 0.00 | 0.00 | 71 | 1015.6 |
| 20260506002503 | 62 | 308 | 0.0 | 4.3 | 0.00 | 0.00 | 0.00 | 72 | 1015.6 |
| 20260506002003 | 62 | 333 | 1.7 | 5.2 | 0.00 | 0.00 | 0.00 | 71 | 1015.6 |
| 20260506001509 | 61 | 302 | 0.9 | 6.1 | 0.00 | 0.00 | 0.00 | 72 | 1015.6 |
| 20260506001004 | 61 | 281 | 1.7 | 6.1 | 0.00 | 0.00 | 0.00 | 72 | 1015.6 |
| 20260506000507 | 61 | 230 | 1.7 | 3.5 | 0.00 | 0.00 | 0.00 | 72 | 1015.7 |
| 20260506000014 | 61 | 296 | 0.9 | 3.5 | 0.00 | 0.00 | 0.00 | 71 | 1015.8 |
| 20260505235508 | 61 | 281 | 1.7 | 6.1 | 0.00 | 0.00 | 0.00 | 71 | 1015.8 |
| 20260505235006 | 61 | 257 | 1.7 | 6.1 | 0.00 | 0.00 | 0.00 | 72 | 1015.8 |
| 20260505234519 | 61 | 285 | 1.7 | 5.2 | 0.00 | 0.00 | 0.00 | 72 | 1015.9 |
| 20260505234004 | 61 | 277 | 1.7 | 6.1 | 0.00 | 0.00 | 0.00 | 72 | 1015.9 |
| 20260505233508 | 61 | 335 | 2.6 | 5.2 | 0.00 | 0.00 | 0.00 | 71 | 1016.0 |
| 20260505233004 | 61 | 173 | 0.9 | 5.2 | 0.00 | 0.00 | 0.00 | 73 | 1016.1 |
| 20260505232504 | 61 | 344 | 1.7 | 5.2 | 0.00 | 0.00 | 0.00 | 72 | 1016.1 |
| 20260505232004 | 61 | 292 | 2.6 | 6.1 | 0.00 | 0.00 | 0.00 | 71 | 1016.0 |
| 20260505231512 | 62 | 240 | 2.6 | 6.1 | 0.00 | 0.00 | 0.00 | 70 | 1016.0 |
| 20260505231005 | 62 | 199 | 1.7 | 5.2 | 0.00 | 0.00 | 0.00 | 70 | 1016.0 |
| 20260505230504 | 61 | 350 | 0.0 | 2.6 | 0.00 | 0.00 | 0.00 | 70 | 1016.0 |
| 20260505230021 | 62 | 225 | 0.9 | 5.2 | 0.00 | 0.00 | 0.00 | 70 | 1016.1 |
| 20260505225509 | 61 | 278 | 0.9 | 5.2 | 0.00 | 0.00 | 0.00 | 71 | 1016.2 |
| 20260505225008 | 62 | 317 | 0.9 | 6.1 | 0.00 | 0.00 | 0.00 | 71 | 1016.3 |
| 20260505224518 | 61 | 271 | 0.9 | 6.1 | 0.00 | 0.00 | 0.00 | 72 | 1016.3 |
| 20260505224007 | 61 | 264 | 2.6 | 6.1 | 0.00 | 0.00 | 0.00 | 70 | 1016.3 |
| 20260505223510 | 61 | 61 | 0.9 | 6.1 | 0.00 | 0.00 | 0.00 | 71 | 1016.4 |
| 20260505223020 | 61 | 309 | 1.7 | 3.5 | 0.00 | 0.00 | 0.00 | 72 | 1016.4 |
| 20260505222507 | 62 | 317 | 1.7 | 6.1 | 0.00 | 0.00 | 0.00 | 70 | 1016.4 |
| 20260505222004 | 61 | 271 | 1.7 | 6.1 | 0.00 | 0.00 | 0.00 | 72 | 1016.6 |
| 20260505221504 | 61 | 286 | 0.9 | 3.5 | 0.00 | 0.00 | 0.00 | 73 | 1016.6 |
| 20260505221003 | 61 | 273 | 0.9 | 4.3 | 0.00 | 0.00 | 0.00 | 71 | 1016.6 |
| 20260505220503 | 60 | 271 | 1.7 | 5.2 | 0.00 | 0.00 | 0.00 | 73 | 1016.7 |
| 20260505220009 | 60 | 312 | 1.7 | 5.2 | 0.00 | 0.00 | 0.00 | 72 | 1016.8 |
| 20260505215508 | 60 | 286 | 2.6 | 5.2 | 0.00 | 0.00 | 0.00 | 72 | 1016.8 |
| 20260505215004 | 60 | 194 | 1.7 | 4.3 | 0.00 | 0.00 | 0.00 | 73 | 1016.8 |
| 20260505214517 | 60 | 220 | 1.7 | 5.2 | 0.00 | 0.00 | 0.00 | 73 | 1016.7 |
| 20260505214011 | 60 | 272 | 1.7 | 5.2 | 0.00 | 0.00 | 0.00 | 73 | 1016.7 |
| 20260505213504 | 60 | 217 | 1.7 | 3.5 | 0.00 | 0.00 | 0.00 | 74 | 1016.7 |
| 20260505213028 | 61 | 255 | 0.9 | 2.6 | 0.00 | 0.00 | 0.00 | 72 | 1016.8 |
| 20260505212510 | 61 | 53 | 0.9 | 3.5 | 0.00 | 0.00 | 0.00 | 73 | 1016.8 |
| 20260505212011 | 60 | 271 | 0.9 | 3.5 | 0.00 | 0.00 | 0.00 | 73 | 1016.8 |
| 20260505211524 | 60 | 314 | 0.9 | 5.2 | 0.00 | 0.00 | 0.00 | 73 | 1016.7 |
| 20260505211003 | 60 | 286 | 1.7 | 5.2 | 0.00 | 0.00 | 0.00 | 73 | 1016.8 |
| 20260505210503 | 60 | 281 | 0.9 | 5.2 | 0.00 | 0.00 | 0.00 | 74 | 1016.9 |
| 20260505210012 | 60 | 298 | 1.7 | 5.2 | 0.00 | 0.00 | 0.00 | 73 | 1016.9 |
| 20260505205506 | 61 | 316 | 0.9 | 1.7 | 0.00 | 0.00 | 0.00 | 73 | 1017.0 |
| 20260505205004 | 60 | 186 | 0.9 | 1.7 | 0.00 | 0.00 | 0.00 | 75 | 1017.0 |
| 20260505204514 | 60 | 163 | 0.9 | 3.5 | 0.00 | 0.00 | 0.00 | 74 | 1017.0 |
| 20260505204008 | 59 | 225 | 0.9 | 3.5 | 0.00 | 0.00 | 0.00 | 74 | 1017.0 |
| 20260505203510 | 59 | 262 | 0.0 | 3.5 | 0.00 | 0.00 | 0.00 | 75 | 1017.0 |
| 20260505203024 | 59 | 305 | 0.9 | 2.6 | 0.00 | 0.00 | 0.00 | 75 | 1017.0 |
| 20260505202507 | 59 | 287 | 0.9 | 2.6 | 0.00 | 0.00 | 0.00 | 76 | 1017.0 |
| 20260505202009 | 59 | 257 | 0.9 | 1.7 | 0.00 | 0.00 | 0.00 | 75 | 1017.0 |
| 20260505201530 | 59 | 337 | 0.0 | 5.2 | 0.00 | 0.00 | 0.00 | 76 | 1016.9 |
| 20260505201011 | 58 | 297 | 0.0 | 5.2 | 0.00 | 0.00 | 0.00 | 77 | 1016.8 |
| 20260505200512 | 58 | 210 | 0.9 | 1.7 | 0.00 | 0.00 | 0.00 | 76 | 1016.9 |
| 20260505200026 | 59 | 324 | 0.9 | 2.6 | 0.00 | 0.00 | 0.00 | 76 | 1016.9 |
| 20260505195504 | 58 | 272 | 0.0 | 2.6 | 0.00 | 0.00 | 0.00 | 77 | 1016.9 |
| 20260505195005 | 58 | 302 | 0.9 | 3.5 | 0.00 | 0.00 | 0.00 | 77 | 1017.0 |
| 20260505194509 | 58 | 273 | 1.7 | 3.5 | 0.00 | 0.00 | 0.00 | 77 | 1016.9 |
| 20260505194010 | 58 | 250 | 1.7 | 3.5 | 0.00 | 0.00 | 0.00 | 77 | 1016.8 |
| 20260505193506 | 58 | 71 | 0.0 | 3.5 | 0.00 | 0.00 | 0.00 | 77 | 1016.8 |
| 20260505193015 | 58 | 276 | 1.7 | 4.3 | 0.00 | 0.00 | 0.00 | 76 | 1016.8 |
| 20260505192512 | 59 | 200 | 0.0 | 4.3 | 0.00 | 0.00 | 0.00 | 78 | 1016.8 |
| 20260505192007 | 58 | 225 | 0.0 | 2.6 | 0.00 | 0.00 | 0.00 | 79 | 1016.8 |
| 20260505191519 | 57 | 180 | 0.9 | 2.6 | 0.00 | 0.00 | 0.00 | 79 | 1016.8 |
| 20260505191008 | 57 | 223 | 0.9 | 1.7 | 0.00 | 0.00 | 0.00 | 79 | 1016.8 |
| 20260505190510 | 57 | 180 | 0.9 | 6.1 | 0.00 | 0.00 | 0.00 | 79 | 1016.8 |
| 20260505190025 | 57 | 195 | 1.7 | 6.1 | 0.00 | 0.00 | 0.00 | 79 | 1016.8 |
| 20260505185514 | 57 | 200 | 1.7 | 3.5 | 0.00 | 0.00 | 0.00 | 79 | 1016.7 |
| 20260505185010 | 57 | 186 | 0.9 | 3.5 | 0.00 | 0.00 | 0.00 | 81 | 1016.7 |
| 20260505184534 | 56 | 178 | 0.9 | 5.2 | 0.00 | 0.00 | 0.00 | 80 | 1016.7 |
| 20260505184007 | 56 | 159 | 0.9 | 5.2 | 0.00 | 0.00 | 0.00 | 81 | 1016.7 |
| 20260505183504 | 56 | 193 | 2.6 | 5.2 | 0.00 | 0.00 | 0.00 | 80 | 1016.7 |
| 20260505183019 | 56 | 200 | 0.9 | 3.5 | 0.00 | 0.00 | 0.00 | 80 | 1016.8 |
| 20260505182507 | 56 | 188 | 0.9 | 4.3 | 0.00 | 0.00 | 0.00 | 81 | 1016.7 |
| 20260505182012 | 56 | 140 | 1.7 | 4.3 | 0.00 | 0.00 | 0.00 | 80 | 1016.6 |
| 20260505181520 | 56 | 184 | 1.7 | 4.3 | 0.00 | 0.00 | 0.00 | 80 | 1016.6 |
| 20260505181009 | 56 | 186 | 1.7 | 4.3 | 0.00 | 0.00 | 0.00 | 81 | 1016.7 |
| 20260505180511 | 56 | 194 | 0.0 | 2.6 | 0.00 | 0.00 | 0.00 | 80 | 1016.7 |
| 20260505180024 | 56 | 199 | 0.0 | 1.7 | 0.00 | 0.00 | 0.00 | 81 | 1016.6 |
| 20260505175509 | 56 | 317 | 0.0 | 1.7 | 0.00 | 0.00 | 0.00 | 81 | 1016.6 |
| 20260505175007 | 56 | 286 | 0.9 | 2.6 | 0.00 | 0.00 | 0.00 | 81 | 1016.6 |
| 20260505174535 | 56 | 329 | 0.9 | 2.6 | 0.00 | 0.00 | 0.00 | 82 | 1016.6 |
| 20260505174010 | 55 | 108 | 0.0 | 1.7 | 0.00 | 0.00 | 0.00 | 82 | 1016.6 |
| 20260505173509 | 55 | 286 | 0.9 | 1.7 | 0.00 | 0.00 | 0.00 | 82 | 1016.6 |
| 20260505173029 | 55 | 296 | 0.0 | 1.7 | 0.00 | 0.00 | 0.00 | 82 | 1016.6 |
| 20260505172504 | 55 | 186 | 0.0 | 1.7 | 0.00 | 0.00 | 0.00 | 82 | 1016.5 |
| 20260505172010 | 56 | 188 | 0.0 | 1.7 | 0.00 | 0.00 | 0.00 | 83 | 1016.5 |
| 20260505171515 | 55 | 186 | 0.0 | 1.7 | 0.00 | 0.00 | 0.00 | 82 | 1016.5 |
| 20260505171007 | 55 | 188 | 0.0 | 1.7 | 0.00 | 0.00 | 0.00 | 82 | 1016.5 |
| 20260505170508 | 55 | 289 | 0.9 | 1.7 | 0.00 | 0.00 | 0.00 | 82 | 1016.4 |
| 20260505170022 | 55 | 197 | 0.0 | 2.6 | 0.00 | 0.00 | 0.00 | 82 | 1016.4 |
| 20260505165503 | 55 | 279 | 0.0 | 2.6 | 0.00 | 0.00 | 0.00 | 83 | 1016.4 |
| 20260505165004 | 55 | 253 | 0.0 | 1.7 | 0.00 | 0.00 | 0.00 | 82 | 1016.3 |
| 20260505164503 | 55 | 254 | 0.0 | 1.7 | 0.00 | 0.00 | 0.00 | 82 | 1016.3 |
| 20260505164003 | 55 | 184 | 0.0 | 0.9 | 0.00 | 0.00 | 0.00 | 83 | 1016.3 |
| 20260505163504 | 55 | 210 | 0.0 | 0.9 | 0.00 | 0.00 | 0.00 | 82 | 1016.3 |
| 20260505163004 | 55 | 131 | 0.0 | 0.0 | 0.00 | 0.00 | 0.00 | 83 | 1016.3 |
| 20260505162504 | 55 | 131 | 0.0 | 1.7 | 0.00 | 0.00 | 0.00 | 83 | 1016.3 |
| 20260505162004 | 55 | 260 | 0.0 | 1.7 | 0.00 | 0.00 | 0.00 | 83 | 1016.2 |
| 20260505161505 | 55 | 221 | 0.0 | 1.7 | 0.00 | 0.00 | 0.00 | 83 | 1016.2 |
| 20260505161005 | 55 | 215 | 0.0 | 1.7 | 0.00 | 0.00 | 0.00 | 83 | 1016.1 |
| 20260505160504 | 55 | 352 | 0.0 | 1.7 | 0.00 | 0.00 | 0.00 | 83 | 1016.1 |
| 20260505153006 | 54 | 190 | 0.0 | 2.6 | 0.00 | 0.00 | 0.00 | 84 | 1016.0 |
| 20260505152506 | 54 | 209 | 0.0 | 1.7 | 0.00 | 0.00 | 0.00 | 84 | 1016.0 |
| 20260505152005 | 54 | 212 | 0.0 | 1.7 | 0.00 | 0.00 | 0.00 | 84 | 1016.0 |
| 20260505151506 | 54 | 232 | 0.0 | 1.7 | 0.00 | 0.00 | 0.00 | 84 | 1016.0 |
| 20260505151003 | 54 | 234 | 0.9 | 1.7 | 0.00 | 0.00 | 0.00 | 84 | 1015.9 |
| 20260505150504 | 54 | 150 | 0.0 | 0.0 | 0.00 | 0.00 | 0.00 | 84 | 1015.8 |
| 20260505140507 | 54 | 163 | 0.0 | 1.7 | 0.00 | 0.00 | 0.00 | 85 | 1015.3 |
| 20260505125008 | 53 | 171 | 0.0 | 1.7 | 0.00 | 0.00 | 0.00 | 85 | 1014.5 |
| 20260505124514 | 54 | 212 | 0.0 | 1.7 | 0.00 | 0.00 | 0.00 | 85 | 1014.5 |
| 20260505124007 | 54 | 212 | 0.0 | 4.3 | 0.00 | 0.00 | 0.00 | 85 | 1014.5 |
| 20260505123507 | 53 | 212 | 0.0 | 4.3 | 0.00 | 0.00 | 0.00 | 85 | 1014.4 |
| 20260505123013 | 53 | 180 | 0.9 | 2.6 | 0.00 | 0.00 | 0.00 | 85 | 1014.5 |
| 20260505122504 | 54 | 192 | 0.9 | 2.6 | 0.00 | 0.00 | 0.00 | 85 | 1014.4 |
| 20260505122004 | 53 | 233 | 0.0 | 1.7 | 0.00 | 0.00 | 0.00 | 86 | 1014.4 |
| 20260505121517 | 53 | 204 | 0.0 | 0.9 | 0.00 | 0.00 | 0.00 | 86 | 1014.3 |
| 20260505121003 | 53 | 203 | 0.0 | 2.6 | 0.00 | 0.00 | 0.00 | 86 | 1014.3 |
| 20260505120508 | 53 | 204 | 0.9 | 2.6 | 0.00 | 0.00 | 0.00 | 86 | 1014.3 |
| 20260505120013 | 53 | 205 | 0.9 | 2.6 | 0.00 | 0.00 | 0.00 | 85 | 1014.3 |
| 20260505115504 | 53 | 207 | 0.0 | 2.6 | 0.00 | 0.00 | 0.00 | 85 | 1014.2 |
| 20260505115009 | 53 | 207 | 0.0 | 5.2 | 0.00 | 0.00 | 0.00 | 85 | 1014.3 |
| 20260505114519 | 53 | 186 | 2.6 | 4.3 | 0.00 | 0.00 | 0.00 | 85 | 1014.2 |
| 20260505114007 | 53 | 156 | 0.0 | 3.5 | 0.00 | 0.00 | 0.00 | 85 | 1014.3 |
| 20260505113509 | 53 | 202 | 0.0 | 3.5 | 0.00 | 0.00 | 0.00 | 85 | 1014.3 |
| 20260505113020 | 53 | 184 | 0.9 | 2.6 | 0.00 | 0.00 | 0.00 | 85 | 1014.3 |
| 20260505112507 | 53 | 245 | 0.0 | 5.2 | 0.00 | 0.00 | 0.00 | 86 | 1014.2 |
| 20260505112007 | 53 | 218 | 2.6 | 5.2 | 0.00 | 0.00 | 0.00 | 85 | 1014.2 |
| 20260505111518 | 53 | 192 | 0.9 | 2.6 | 0.00 | 0.00 | 0.00 | 85 | 1014.2 |
| 20260505111006 | 53 | 200 | 0.9 | 3.5 | 0.00 | 0.00 | 0.00 | 85 | 1014.2 |
| 20260505110507 | 53 | 224 | 0.9 | 3.5 | 0.00 | 0.00 | 0.00 | 85 | 1014.2 |
| 20260505102006 | 53 | 211 | 0.0 | 7.0 | 0.00 | 0.00 | 0.00 | 86 | 1013.9 |
| 20260505101519 | 53 | 213 | 2.6 | 7.0 | 0.00 | 0.00 | 0.00 | 86 | 1013.9 |
| 20260505101008 | 53 | 223 | 0.9 | 7.0 | 0.00 | 0.00 | 0.00 | 86 | 1013.8 |
| 20260505100507 | 53 | 222 | 0.9 | 7.0 | 0.00 | 0.00 | 0.00 | 86 | 1013.8 |